Location: ???????
(55.3754°N, 39.3545°E)
Time: 22:35:29
(UTC+00:00)

Cosmos 2322 - Pass Details

Date: 14 April 2026
Orbit: 839 x 854 km, 71.0° (Epoch: 13 May)

Event Time Altitude Azimuth Distance (km) Brightness Sun altitude
Rises 18:23:07 0° 219° (SW) 3,411 6.8 -15.0°
Reaches altitude 10° 18:25:34 10° 221° (SW) 2,480 6.1 -15.3°
Maximum altitude 18:31:16 73° 306° (NW) 897 4.0 -15.8°
Drops below altitude 10° 18:37:02 10° 32° (NNE) 2,498 6.3 -16.4°
Sets 18:39:30 0° 35° (NE) 3,437 7.0 -16.6°
